Flag for Australia Weather past 2 weeks in Kalgoorlie, Western Australia, Australia

Now
68 °F

Passing clouds.


Feels Like: 68 °F
Forecast: 64 / 89 °F
Wind: 16 mph from Southeast

Location: Kalgoorlie Boulder Amo

Current Time: Feb 1, 2015 at 2:18:43 AM

Latest Report: Feb 1, 2015 at 2:00 AM


Visibility: N/A

Pressure: 29.98 "Hg

Humidity: 49%

Dew point: 48 °F

Location of KalgoorlieLocation

Historic Weather in Kalgoorlie — Graph

°F

Kalgoorlie temperature yesterday

Maximum temperature yesterday: 81 °F (at 3:30 PM)
Minimum temperature yesterday: 63 °F (at 4:00 AM)
Average temperature yesterday: 72 °F

Past Weeks' High & Low Weather Summary

 TemperatureHumidityPressure
High111 °F (Jan 18, 1:30 PM)68% (Jan 25, 3:00 AM)30.07 "Hg (Jan 25, 3:00 AM)
Low59 °F (Jan 26, 5:00 AM)1% (Jan 19, 2:30 PM)29.65 "Hg (Jan 18, 2:55 PM)
Average82 °F27%29.91 "Hg
* Reported Jan 17 1:00 AM — Feb 1 1:00 AM, Kalgoorlie, Weather by CustomWeather, © 2014

Note: Actual official high and low records may vary slightly from our data, if they occured in-between our weather recording intervals... More about our weather records

Advertising

Kalgoorlie weather history for previous 24 hours

 ConditionsComfort  
Time TempWeatherWind HumidityBarometerVisibility
1:00 AM
Feb 1
68 °FClear.16 mph49%30.01 "HgN/A
12:30 AM70 °FClear.17 mph46%30.01 "HgN/A
12:00 AM72 °FClear.17 mph44%30.01 "HgN/A
11:00 PM
Jan 31
73 °FClear.17 mph38%30.01 "HgN/A
10:30 PM75 °FClear.22 mph34%30.01 "HgN/A
10:00 PM77 °FPassing clouds.14 mph28%30.01 "HgN/A
9:30 PM77 °FPassing clouds.10 mph28%30.01 "HgN/A
9:00 PM79 °FClear.12 mph26%30.01 "HgN/A
8:30 PM79 °FPassing clouds.13 mph26%30.01 "HgN/A
8:00 PM79 °FPassing clouds.10 mph26%30.01 "HgN/A
7:30 PM79 °FLight rain. Passing clouds.12 mph28%29.98 "HgN/A
7:00 PM79 °FPassing clouds.14 mph26%29.98 "HgN/A
6:30 PM79 °FPassing clouds.15 mph26%29.98 "HgN/A
6:00 PM79 °FLight rain. Overcast.13 mph28%29.98 "HgN/A
5:30 PM81 °FPartly sunny.13 mph26%29.98 "HgN/A
5:00 PM79 °FSunny.15 mph28%29.98 "HgN/A
4:30 PM81 °FSunny.13 mph24%29.98 "HgN/A
4:00 PM79 °FSunny.13 mph28%29.98 "HgN/A
3:30 PM81 °FScattered clouds.17 mph26%29.98 "HgN/A
3:00 PM79 °FSunny.15 mph30%29.98 "HgN/A
2:00 PM79 °FSunny.18 mph30%29.98 "HgN/A
1:00 PM77 °FSunny.14 mph34%29.98 "HgN/A
12:30 PM77 °FSunny.16 mph34%30.01 "HgN/A
12:00 PM75 °FSunny.14 mph39%30.01 "HgN/A
11:00 AM73 °FSunny.15 mph44%30.04 "HgN/A
10:30 AM72 °FSunny.17 mph47%30.04 "HgN/A
10:00 AM70 °FSunny.13 mph53%30.04 "HgN/A
9:30 AM68 °FSunny.14 mph56%30.04 "HgN/A
9:00 AM68 °FSunny.16 mph56%30.04 "HgN/A
8:30 AM68 °FPartly sunny.16 mph56%30.07 "HgN/A
8:00 AM66 °FOvercast.16 mph60%30.07 "HgN/A
7:30 AM64 °FOvercast.14 mph64%30.07 "HgN/A
7:00 AM64 °FOvercast.15 mph64%30.07 "HgN/A
6:30 AM64 °FOvercast.15 mph64%30.07 "HgN/A
6:00 AM63 °FOvercast.16 mph68%30.04 "HgN/A
5:00 AM63 °FSunny.16 mph68%30.04 "HgN/A
4:00 AM63 °FClear.15 mph68%30.01 "HgN/A
3:30 AM64 °FClear.14 mph64%30.01 "HgN/A
3:00 AM64 °FClear.17 mph64%29.98 "HgN/A
2:30 AM64 °FClear.17 mph64%29.98 "HgN/A
2:00 AM66 °FClear.18 mph60%29.98 "HgN/A
Weather by CustomWeather, © 2014

See weather overviewHow to use our weather pages